Flight Information

DEPARTURE
MEDFORD, OR
Elevation:
1335
Runways:
14/32 - 8800x150 - ASPH-G
ATIS:
127.25
Ground:
121.8
Tower:
MEDFORD TOWER 119.4
DESTINATION
,
Elevation:
TPA:
1000 (est.)


6818.1 NM66° True-18° Var48° HDG

Flight Plan:
(click to file on line)

1. Type
2. Aircraft Identification
3. Aircraft Type / Special Equipment
4. True Airspeed
kts
5. Departure Airport
(ICAO code)
6. Arriving Airport
(ICAO code)
7. Cruising Altitude
ft
8. Alternate Airport
(ICAO code)
9. Route of Flight
10. Remarks


00:00:00 Departure ATIS: Destination ATIS:

Clearance Limit:
Route:
Altitude: Expect in minutes
Frequency:
Transponder: (7500 Hijack / 7600 Lost Comms / 7700 Emergency)


KMFR 281053Z AUTO 00000KT 10SM CLR 11/07 A3017 RMK AO2 SLP211 T01110067
Time: 2020-09-28T10:53:00Z
1601293556
Winds: calm
Visibility: 10.0 sm
Clouds (AGL): CLR
Temperature: 11.1 C
Dew Point: 6.7 C
Pressure: 30.171259 in Hgbr


Notes:

Data extracted from FAA Digital Chart Supplement. Effective: 0901Z Thursday, Sep 10, 2020 to 0901Z Thursday, Nov 5, 2020
Current ATIS data is provided courtisy of PilotEdge.